Miscellaneous Local Product
Issued by NWS North Platte, NE

Home | Current Version | Previous Version | Text Only | Print | Product List | Glossary On
Versions: 1 2 3 4 5 6 7 8 9 10 11 12 13 14 15 16 17 18 19 20 21 22 23 24 25 26 27 28 29 30 31 32 33 34 35 36 37 38 39 40 41 42 43 44 45 46 47 48 49 50
913
AXUS43 KLBF 041010
MISLBF


WESTERN AND NORTH CENTRAL NEBRASKA HOURLY WEATHER ROUNDUP
NATIONAL WEATHER SERVICE NORTH PLATTE NE
500 AM CDT WED MAY 04 2016

NOTE: "FAIR" INDICATES FEW OR NO CLOUDS BELOW 12,000 FEET WITH NO
SIGNIFICANT WEATHER AND/OR OBSTRUCTIONS TO VISIBILITY.

NOTE: STATIONS NOT REPORTING VARIABLES SUCH AS SKY/WEATHER OR
PRESSURE ARE PROVIDED BY RAWS AND APRS NETWORKS AND ARE NOT UNDER
NATIONAL WEATHER SERVICE QUALITY CONTROL.

...OBSERVATIONS IN AND NEAR THE EASTERN PANHANDLE OF NEBRASKA...

CITY           SKY/WX    TMP DP  RH WIND       PRES   REMARKS
PINE RIDGE     CLEAR     36  33  89 NE3       30.14R
CHADRON        CLEAR     41  38  89 SW6       30.15R
ALLIANCE       CLEAR     36  35  96 W8        30.15S WCI  30
SIDNEY         CLEAR     39  35  86 NW6       30.18F WCI  35
CRESCENT LAKE    N/A     45  39  81 NW6         N/A
BIG SPRINGS      N/A     43  39  87 SW6         N/A
$$

...OBSERVATIONS IN NORTHERN NEBRASKA AND FAR SOUTHERN SOUTH DAKOTA...

CITY           SKY/WX    TMP DP  RH WIND       PRES   REMARKS
WINNER         FAIR      43  37  79 W6        30.10R
VALENTINE      CLEAR     41  36  82 NW7       30.11R
THEDFORD       CLEAR     43  39  87 W5        30.12R
AINSWORTH      CLEAR     46  39  76 NW5       30.10S
O`NEILL        CLEAR     44  35  71 NW9       30.07R
ORD            CLEAR     44  41  89 N10       30.05R
BROKEN BOW     CLEAR     45  40  82 N9        30.07R
VALENTINE NWR    N/A     43  39  86 CALM        N/A
BUTTE            N/A     45  34  65 NW3         N/A
HALSEY           N/A     48  39  72 NW3         N/A
CHAMBERS         N/A     42  33  70 CALM        N/A
EWING            N/A     45  35  68 N3          N/A
$$

...OBSERVATIONS IN SOUTHWEST NEBRASKA AND FAR NORTHEAST COLORADO...

CITY           SKY/WX    TMP DP  RH WIND       PRES   REMARKS
HOLYOKE        FAIR      46  36  66 W10       30.16S
IMPERIAL       CLEAR     48  38  68 NW10      30.13S
OGALLALA       CLEAR     40  37  89 SW6       30.13S
NORTH PLATTE   CLEAR     42  39  89 NW5       30.11R
MCCOOK         CLEAR     44  39  82 W10       30.08S
LEXINGTON      CLEAR     44  40  85 W8        30.07R
PAXTON           N/A     45  40  83 W6          N/A
STAPLETON        N/A     46  40  79 CALM        N/A
GOTHENBURG       N/A     46  37  72 W5          N/A
CALLAWAY         N/A     47  40  77 NW9         N/A
$$

...OBSERVATIONS IN CENTRAL LINCOLN COUNTY AREA...

CITY           SKY/WX    TMP DP  RH WIND       PRES   REMARKS
N.P. AIRPORT   CLEAR     42  39  89 NW5       30.11R
N.P. DOWNTOWN    N/A     45  39  81 CALM        N/A
N.P. SOUTHEAST   N/A     46  39  76 CALM        N/A
N.P. HILLCREST   N/A     45  40  83 NW3         N/A
$$

...SOME OBSERVATIONS FROM AROUND THE REGION...

CITY           SKY/WX    TMP DP  RH WIND       PRES   REMARKS
DENVER         CLEAR     45  28  51 SW13      30.25S
LARAMIE        CLOUDY    31  28  89 S6        30.31S WCI  25
CHEYENNE       CLEAR     40  32  73 NW9       30.26S WCI  34
SCOTTSBLUFF    CLEAR     44  39  82 NW10      30.18S
RAPID CITY     CLEAR     47  37  68 NW10      30.13S
BISMARCK       CLEAR     38  32  79 CALM      30.11S
PIERRE         CLEAR     44  30  57 N5        30.10R
SIOUX FALLS    CLEAR     44  33  65 N9        30.00R
OMAHA          CLEAR     49  39  68 N7        29.93R
GRAND ISLAND   PTCLDY    49  41  74 NW10      30.03R
KANSAS CITY    PTCLDY    57  43  59 NW15G22   29.85R
WICHITA        CLEAR     54  45  71 W10       29.99S
OKLAHOMA CITY  CLEAR     51  48  89 W5        30.03S
DALLAS         CLEAR     59  54  83 W7        30.05R
AMARILLO       CLEAR     45  35  68 NW6       30.20R
DODGE CITY     CLEAR     49  41  74 W14       30.09S
HAYS           CLEAR     45  36  70 W8        30.03F
GOODLAND       CLEAR     42  34  73 W10       30.15S
$$




USA.gov is the U.S. government's official web portal to all federal, state and local government web resources and services.